STARLINK-2393 (47812 NORAD) Tracking and Keplerian Element Data

This shows tracking and keplerian element data for the satellite.

Feedback or suggestion? Click here.




ElementValue
Catalog47812
NameSTARLINK-2393
Epoch Orbit1656
Epoch Day170.45434605
Epoch Year2021
RAAN82.0148
Inclination53.0529
Eccentricity0.0001924
Argument of Perigee75.7474
Mean Anonmoly284.3729
Mean Motion15.06386861
Decay Rate-1.064E-05
L11 47812U 21018AB 21170.45434605 -.00001064 00000-0 -52526-4 0 9993
L22 47812 53.0529 82.0148 0001924 75.7474 284.3729 15.06386861 16568

Live tracking and technical data element details for STARLINK-2393 (NORAD 47812). STARLINK-2393 can be tracked NOW for your location showing map with azimuth and elevation plus other details from your city location.

Track the satellite on the map from your city or location and see movement details for azimuth, elevation, latitude, longitude, range, height, and movement on the map or in text.







IsCatalogInMostPopularTable: catalog: 47812, numindb: 47
Update: records affected: 1



GetName: 47812 STARLINK-2393

Hit Count: updated at: Mon, 21 Jun 2021 04:30:08 GMT